Find CO3D F3

NORAD ID: 64900 Int'l Des: 2025-156 Owner: CNES Country: F operational
LEOCIRCULARRETROGRADESSO

当前视图

正在加载3D地球...

About CO3D F3

CO3D F3 (NORAD 64900) is a satellite launched Jul 26, 2025 by CNES of F. It operates in LEO, CIRCULAR, RETROGRADE, SSO orbit with a mass of 285.00 kg.

即将过境

Passes for default location (London). Set your location on the main map for personalized predictions.

高度历史

Loading altitude history...

两行轨道根数

1 64900U 25156B 26194.84585051 .00002487 00000-0 11803-3 0 9993
2 64900 97.4339 273.1556 0001792 93.8209 266.3230 15.20185668 53580
Epoch: Jul 13, 2026 • Age: 8 hours

当前状态

高度 511.8 km
远地点 / 近地点 N/A
速度 7.61 km/s
星下点 47.12°N, 92.71°W
发射日期 Jul 26, 2025
运行时间 0.9 years
类型 earth observation

技术详情

分类 Payload
质量 285.00 kg
干质量 285.00 kg
总质量 285.00 kg
长度 1.20 m
直径 0.50 m
跨度 2.50 m
形状 Box+ 2 pan
制造商 ADST
平台类型 Astrobus-SE
阶段状态 In Orbit
所有者/国家 CNES/F

Most Searched